Location: Arclight Observatory
(36.5667°N, 87.3333°W)
Time: 16:08:27
(UTC-06:00)

ISS - Visible Passes

Search period start: 18 January 2017 00:00
Search period end: 28 January 2017 00:00
Orbit: 400 x 410 km, 51.6° (Epoch: 19 January)

Date Brightness Start Highest point End Pass type
(mag) Time Alt. Az. Time Alt. Az. Time Alt. Az.
18 Jan -3.4 05:48:45 26° NW 05:50:27 86° NE 05:53:42 10° SE visible
19 Jan -1.8 04:58:59 35° ENE 04:58:59 35° ENE 05:01:22 10° ESE visible
19 Jan -1.3 06:32:26 10° W 06:34:30 16° SW 06:36:33 10° SSW visible
20 Jan -2.4 05:41:59 30° WSW 05:42:30 32° SW 05:45:26 10° SSE visible
21 Jan -1.1 04:52:23 22° SE 04:52:23 22° SE 04:53:39 10° SE visible
22 Jan -0.8 05:35:32 11° SSW 05:35:32 11° SSW 05:35:45 10° SSW visible
25 Jan 0.0 19:32:47 10° SW 19:32:53 11° SW 19:32:53 11° SW visible
26 Jan -2.4 18:40:47 10° SSW 18:43:21 36° SSE 18:43:21 36° SSE visible
27 Jan -1.6 17:49:21 10° S 17:51:45 19° SE 17:53:43 12° E visible
27 Jan -0.7 19:25:01 10° WSW 19:26:25 21° W 19:26:25 21° W visible
